Probability
0 0 0 0 0 0 0 0 0 0 0 0 0 0 0 0 0 0 0 0 0 0 0 0 0 0 0 0 0 0 0 0 0 0 0 0 0 0 0 0 0 0 0
0 0 0 0 0 0 0 0 0 0 0 0 0 0 0 0 0 0 0 0 0 0 0 0 0 0 0 0 0 0 0 0 0 0 0 0 0 0 0 0 0 0 0
0 0 0 0 0 0 0 0 0 0 0 0 0 0 0 0 0 0 0 0 0 0 0 0 0 0 0 0 0 0 0 0 0 0 0 0 0 0 0 0 0 0 0
0 0 0 0 0 0 0 0 0 0 0 0 0 0 0 0 0 0 0 0 0 0 0 0 0 0 0 0 0 0 0 0 0 0 0 0 0 0 0 0 0 0 0
0 0 0 0 0 0 0 0 0 0 0 0 0 0 0 0 0 0 0 0 0 0 0 0 0 0 0 0 0 0 0 0 0 0 0 0 0 0 0 0 0 0 0
0 0 0 0 0 0 0 0 0 0 0 0 0 0 0 0 0 0 0 0 0 0 0 0 0 0 0 0 0 0 0 0 0 0 0 0 0 0 0 0 0 0 0
0 0 0 0 0 0 0 0 0 0 0 0 0 0 0 0 0 0 0 0 0 0 0 0 0 0 0 0 0 0 0 0 0 0 0 0 0 0 0 0 0 0 0
0 0 0 0 0 0 0 0 0 0 0 0 0 0 0 0 0 0 0 0 0 0 0 0 0 0 0 0 0 0 0 0 0 0 0 0 0 0 0 0 0 0 0
0 0 0 0 0 0 0 0 0 0 0 0 0 0 0 0 0 0 0 0 0 0 0 0 0 0 0 0 0 0 0 0 0 0 0 0 0 0 0 0 0 0 0
0 0 0 0 0 0 0 0 0 0 0 0 0 0 0 0 0 0 0 0 0 0 0 0 0 0 0 0 0 0 0 0 0 0 0 0 0 0 0 0 0 0 0
0 0 0 0 0 0 0 0 0 0 0 0 0 0 0 0 0 0 0 0 0 0 0 0 0 0 0 0 0 0 0 0 0 0 0 0 0 0 0 0 0 0 0
0 0 0 0 0 0 0 0 0 0 0 0 0 0 0 0 0 0 0 0 0 0 0 0 0 0 0 0 0 0 0 0 0 0 0 0 0 0 0 0 0 0 0
0 0 0 0 0 0 0 0 0 0 0 0 0 0 0 0 0 0 0 0 0 0 0 0 0 0 0 0 0 0 0 0 0 0 0 0 0 0 0 0 0 0 0
0 0 0 0 0 0 0 0 0 0 0 0 0 0 0 0 0 0 0 0 0 0 0 0 0 0 0 0 0 0 0 0 0 0 0 0 0 0 0 0 0 0 0
0 0 0 0 0 0 0 0 0 0 0 0 0 0 0 0 0 0 0 0 0 0 0 0 0 0 0 0 0 0 0 0 0 0 0 0 0 0 0 0 0 0 0
0 0 0 0 0 0 0 0 0 0 0 0 0 0 0 0 0 0 0 0 0 0 0 0 0 0 0 0 0 0 0 0 0 0 0 0 0 0 0 0 0 0 0
0 0 0 0 0 0 0 0 0 0 0 0 0 0 0 0 0 0 0 0 0 0 0 0 0 0 0 0 0 0 0 0 0 0 0 0 0 0 0 0 0 0 0
0 0 0 0 0 0 0 0 0 0 0 0 0 0 0 0 0 0 0 0 0 0 0 0 0 0 0 0 0 0 0 0 0 0 0 0 0 0 0 0 0 0 0
0 0 0 0 0 0 0 0 0 0 0 0 0 0 0 0 0 0 0 0 0 0 0 0 0 0 0 0 0 0 0 0 0 0 0 0 0 0 0 0 0 0 0
0 0 0 0 0 0 0 0 0 0 0 0 0 0 0 0 0 0 0 0 0 0 0 0 0 0 0 0 0 0 0 0 0 0 0 0 0 0 0 0 0 0 0
0 0 0 0 0 0 0 0 0 0 0 0 0 0 0 0 0 0 0 0 0 0 0 0 0 0 0 0 0 0 0 0 0 0 0 0 0 0 0 0 0 0 0
0 0 0 0 0 0 0 0 0 0 0 0 0 0 0 0 0 0 0 0 0 0 0 0 0 0 0 0 0 0 0 0 0 0 0 0 0 0 0 0 0 0 0
0 0 0 0 0 0 0 0 0 0 0 0 0 0 0 0 0 0 0 0 0 0 0 0 0 0 0 0 0 0 0 0 0 0 0 0 0 0 0 0 0 0 0
0 0 0 0 0 0 0 0 0 0 0 0 0 0 0 0 0 0 0 0 0 0 0 0 0 0 0 0 0 0 0 0 0 0 0 0 0 0 0 0 0 0 0
0 0 0 0 0 0 0 0 0 0 0 0 0 0 0 0 0 0 0 0 0 0 0 0 0 0 0 0 0 0 0 0 0 0 0 0 0 0 0 0 0 0 0
0 0 0 0 0 0 0 0 0 0 0 0 0 0 0 0 0 0 0 0 0 0 0 0 0 0 0 0 0 0 0 0 0 0 0 0 0 0 0 0 0 0 0
Wind_Speed
8 7 6 6 6 6 7 8 9 10 10 10 10 10 11 11 10 9 9 18 19 20 21 21 21 21 22 22 22 22 23 23 23 23 23 23 24 24 24 25 25 25 26
8 8 7 7 7 7 7 8 10 9 8 8 10 10 10 9 9 9 9 12 19 20 20 20 20 20 20 21 21 21 22 22 22 22 23 23 23 24 24 24 25 25 25
10 9 8 7 7 8 10 9 10 9 9 9 10 9 8 9 9 9 8 7 10 17 19 19 19 19 19 20 20 21 21 21 22 22 22 23 23 23 24 24 24 25 25
11 9 8 8 9 9 9 9 9 9 9 8 8 7 7 7 8 8 8 7 6 7 14 19 19 19 19 19 19 20 20 21 21 21 22 22 23 23 24 24 25 25 25
11 10 9 9 11 9 9 9 9 9 10 9 8 7 6 6 6 7 8 8 8 7 7 12 16 18 18 18 18 19 19 20 20 20 21 22 22 23 23 24 24 25 25
11 10 8 11 11 10 9 9 11 10 9 10 9 8 6 5 5 6 6 6 6 7 7 7 7 10 16 17 18 18 18 19 19 20 20 21 21 22 23 23 24 24 25
11 11 10 11 11 11 12 14 13 14 10 10 9 7 6 5 5 4 4 5 6 6 6 7 6 5 6 12 16 17 18 18 19 19 20 20 21 21 22 23 24 24 25
11 10 13 12 11 11 13 15 15 10 9 9 7 7 6 5 4 3 4 4 5 4 5 6 6 6 5 4 9 15 17 17 18 19 19 20 21 21 22 23 24 25 25
10 10 13 12 12 13 14 16 17 13 12 9 6 6 6 7 6 5 4 4 4 4 4 4 5 5 5 5 5 11 15 16 17 18 19 19 20 21 22 23 24 25 26
9 10 11 12 13 12 14 16 16 12 14 11 6 4 2 5 7 7 6 5 4 4 4 3 3 4 4 4 5 10 13 15 15 16 18 19 20 21 22 23 24 25 26
9 9 10 11 12 11 13 16 15 13 12 11 8 5 4 3 4 5 7 7 6 4 4 3 2 2 2 3 4 8 11 13 14 15 16 18 19 21 22 23 24 25 26
7 10 10 10 11 10 13 15 14 15 11 11 8 6 6 5 6 4 5 7 6 5 4 3 3 2 1 2 3 7 9 12 14 15 16 17 19 20 22 23 24 26 27
8 12 11 11 11 10 11 12 13 13 12 12 9 6 5 3 4 4 5 6 5 4 4 4 3 2 1 1 2 6 7 10 13 15 16 17 19 20 22 23 25 26 27
11 13 13 12 12 12 12 12 10 11 10 10 9 7 5 5 4 4 4 5 5 4 5 5 4 4 2 2 3 7 5 9 13 15 16 17 19 20 22 23 25 26 27
9 14 13 13 13 13 13 13 10 11 10 9 9 8 6 5 4 4 4 3 4 4 4 5 4 4 3 2 4 5 6 9 13 14 16 17 19 20 22 23 24 26 27
10 13 13 13 13 13 13 12 11 11 11 9 8 9 8 6 5 4 4 3 2 2 3 3 3 2 3 3 5 6 7 11 12 13 15 17 18 20 21 23 24 26 27
13 14 14 14 14 14 14 13 12 14 13 11 10 10 10 9 6 5 4 4 3 3 3 2 2 2 4 5 5 5 6 8 7 12 15 17 18 19 20 22 24 25 26
14 14 14 14 15 15 15 15 15 15 14 14 13 12 11 8 8 6 5 5 4 4 3 3 3 3 5 5 6 7 7 6 8 12 15 17 18 19 20 22 23 24 25
14 13 14 15 15 16 15 15 15 15 14 14 13 13 12 11 10 7 7 6 5 4 3 3 3 3 4 4 6 7 8 8 8 10 14 15 16 18 20 21 22 23 24
15 16 15 15 15 15 15 15 15 14 14 13 12 12 12 12 11 10 7 7 6 5 5 4 4 4 5 5 5 6 7 7 7 8 10 11 14 17 19 20 20 21 23
15 15 15 14 14 13 14 16 15 15 14 13 12 11 11 11 12 10 7 8 8 6 5 5 5 5 6 5 5 5 7 8 9 7 7 7 9 9 11 14 16 20 24
14 14 14 15 16 13 20 24 18 15 14 14 13 11 9 9 12 14 13 12 11 8 7 6 6 7 8 7 6 6 7 9 8 4 7 10 9 10 9 9 17 23 24
14 15 15 16 16 18 26 26 22 14 14 13 13 11 8 8 9 9 12 14 13 14 13 8 8 9 8 7 7 8 8 10 10 8 9 11 9 10 9 11 20 22 23
14 14 15 16 15 16 26 27 23 14 12 12 12 12 11 10 10 10 9 9 10 11 13 11 10 10 8 7 7 9 10 10 11 8 6 9 10 11 11 11 16 19 22
12 12 12 13 13 14 24 26 23 11 10 11 10 10 10 10 14 16 10 10 10 9 12 16 16 14 14 13 10 7 7 8 9 8 4 5 8 11 11 9 10 17 22
10 10 9 10 10 10 21 25 24 10 10 9 8 9 11 13 15 17 12 10 11 10 8 8 10 12 11 11 12 9 7 7 8 7 3 4 7 8 9 7 8 10 13
Wind_Direction
161 155 147 144 138 132 127 119 112 106 100 93 88 86 83 81 83 82 70 57 61 64 65 65 64 63 61 58 54 51 48 44 40 36 33 30 27 24 21 18 15 12 9
164 158 150 146 140 135 127 123 120 113 104 99 94 89 88 88 85 86 84 69 61 61 62 63 62 61 59 56 53 50 46 43 39 35 31 28 25 22 19 16 13 10 6
169 161 154 149 142 135 130 124 119 114 111 108 101 93 87 84 87 85 84 79 71 62 59 60 59 58 56 54 52 49 45 41 37 33 29 26 22 20 17 13 10 7 4
170 161 154 151 146 142 140 136 133 127 122 118 109 99 93 90 85 85 83 80 74 70 63 58 55 54 54 51 48 46 42 38 34 30 26 23 19 16 13 10 7 4 1
170 163 157 151 151 147 146 142 139 137 131 123 112 103 97 93 93 91 87 80 75 73 72 65 57 49 49 48 44 41 39 36 32 27 23 19 16 12 9 6 3 0 358
169 160 153 155 154 150 149 148 141 137 132 128 116 102 95 99 100 98 96 91 83 79 74 67 60 52 46 44 41 37 34 31 28 24 19 15 11 8 5 2 359 356 354
169 163 155 160 162 160 157 153 144 140 139 137 125 116 105 103 107 109 109 107 99 89 80 70 60 52 46 42 36 33 29 26 23 19 14 10 6 3 360 357 354 352 350
173 169 164 166 167 158 155 156 152 146 155 169 154 150 151 157 150 128 129 123 119 113 93 78 69 56 46 42 31 29 23 20 16 13 8 4 0 358 355 352 350 347 345
178 176 173 167 170 166 165 167 167 162 168 180 195 180 171 169 153 160 156 153 144 136 120 102 82 62 47 40 28 24 17 13 10 5 2 358 355 352 350 347 345 343 341
183 180 176 173 174 175 172 174 178 176 171 174 185 222 240 147 157 155 171 172 166 156 145 134 113 82 48 40 32 21 10 6 2 358 355 352 349 347 344 342 340 339 337
186 182 179 177 179 179 176 176 179 181 181 181 174 165 162 155 160 156 162 171 177 175 166 157 148 119 69 31 21 14 0 357 354 351 348 346 343 341 339 338 336 335 334
184 185 182 184 183 181 180 181 180 183 184 186 180 174 169 168 172 164 154 163 170 166 176 182 184 169 109 9 18 355 347 347 345 344 342 341 338 337 335 334 333 332 331
186 187 183 185 184 183 182 180 180 183 185 182 180 175 170 156 144 145 139 144 157 151 180 194 195 196 202 297 334 340 327 336 337 337 337 335 334 333 332 331 330 329 328
188 182 184 184 182 179 177 178 177 176 178 177 171 162 148 136 136 141 139 146 151 162 189 186 181 201 218 267 316 312 309 324 328 330 330 330 330 329 329 328 327 326 325
182 179 182 179 178 176 174 173 173 170 166 166 159 150 138 129 125 120 126 149 156 170 183 175 188 190 224 263 294 298 306 317 317 320 322 323 324 324 325 324 324 324 323
179 178 179 177 175 174 172 171 164 163 159 156 152 147 139 136 128 128 128 125 129 156 172 166 198 207 241 257 281 290 297 304 299 306 312 315 317 318 320 321 321 321 321
182 183 181 176 175 173 172 171 165 162 160 155 154 152 146 144 142 141 139 142 144 157 184 182 216 242 266 272 279 284 291 293 293 295 302 306 309 313 316 318 318 319 320
186 184 182 179 177 175 173 172 166 166 164 162 160 158 154 152 154 154 158 161 163 174 194 217 228 249 259 276 285 287 285 283 282 289 295 299 304 308 311 313 314 317 319
186 184 185 184 180 178 176 174 170 169 169 167 165 166 163 162 166 168 170 168 167 174 195 218 243 253 266 272 285 281 279 277 278 282 289 292 298 304 307 308 312 315 316
188 188 189 189 184 180 176 172 170 169 168 167 168 169 168 174 174 172 173 175 172 180 195 220 242 254 262 269 273 283 288 286 288 286 283 291 298 300 300 304 309 313 315
192 190 189 189 184 180 179 175 172 171 169 167 169 171 175 179 179 176 174 177 177 187 195 215 237 253 258 261 265 278 286 296 293 287 292 296 298 296 300 305 310 315 318
193 190 190 188 187 188 184 181 173 172 171 170 170 172 173 176 186 191 195 193 191 192 201 213 233 245 258 264 270 275 286 295 298 306 305 298 298 296 301 306 313 317 318
193 193 193 192 193 193 186 184 177 170 173 175 171 170 172 181 185 193 207 212 215 219 217 217 240 249 261 265 273 276 276 280 283 300 307 296 301 299 306 309 313 314 318
195 197 196 196 195 196 188 183 175 170 173 175 174 176 176 181 189 192 198 210 220 226 228 231 242 253 259 265 263 271 280 282 282 278 278 285 301 304 309 307 309 315 320
197 199 195 194 194 192 188 182 173 168 172 174 176 178 181 186 198 198 200 213 225 234 239 239 245 253 259 263 264 268 269 275 284 288 277 275 300 309 305 301 310 318 319
195 193 193 190 189 183 185 182 175 170 173 173 176 184 192 197 204 204 207 214 227 231 225 235 244 253 257 258 257 253 259 267 280 291 298 283 299 316 307 303 314 317 316